Time,TemperatureF,DewpointF,PressureIn,WindDirection,WindDirectionDegrees,WindSpeedMPH,WindSpeedGustMPH,Humidity,HourlyPrecipIn,Conditions,Clouds,dailyrainin,SoftwareType,DateUTC
2013-06-04 07:52:00,65.0,56.0,30.02,NE,55,0.0,-999.0,73,-99.99,,,-99.99,,2013-06-04 12:52:00,
2013-06-04 08:02:00,66.0,57.0,30.02,ENE,65,1.0,-999.0,72,-99.99,,,-99.99,,2013-06-04 13:02:00,
2013-06-04 08:12:00,66.0,57.0,30.02,ENE,65,1.0,-999.0,72,-99.99,,,-99.99,,2013-06-04 13:12:00,
2013-06-04 08:22:00,66.0,56.0,30.02,NE,52,3.0,-999.0,71,-99.99,,,-99.99,,2013-06-04 13:22:00,
2013-06-04 08:32:00,67.0,57.0,30.02,ENE,59,4.0,-999.0,70,-99.99,,,-99.99,,2013-06-04 13:32:00,
2013-06-04 08:42:00,67.0,57.0,30.02,ENE,59,4.0,-999.0,70,-99.99,,,-99.99,,2013-06-04 13:42:00,
2013-06-04 08:52:00,67.0,57.0,30.02,ENE,63,3.0,-999.0,70,-99.99,,,-99.99,,2013-06-04 13:52:00,
2013-06-04 09:02:00,68.0,57.0,30.02,ENE,68,4.0,-999.0,69,-99.99,,,-99.99,,2013-06-04 14:02:00,
2013-06-04 09:12:00,68.0,57.0,30.02,ENE,68,4.0,-999.0,69,-99.99,,,-99.99,,2013-06-04 14:12:00,
2013-06-04 09:22:00,69.0,58.0,30.02,ENE,71,4.0,-999.0,68,-99.99,,,-99.99,,2013-06-04 14:22:00,
2013-06-04 09:32:00,69.0,58.0,30.02,East,93,3.0,-999.0,67,-99.99,,,-99.99,,2013-06-04 14:32:00,
2013-06-04 09:42:00,69.0,58.0,30.02,East,93,3.0,-999.0,67,-99.99,,,-99.99,,2013-06-04 14:42:00,
2013-06-04 09:52:00,70.0,59.0,30.01,East,90,4.0,-999.0,67,-99.99,,,-99.99,,2013-06-04 14:52:00,
2013-06-04 10:02:00,71.0,59.0,30.01,ENE,72,3.0,-999.0,67,-99.99,,,-99.99,,2013-06-04 15:02:00,
2013-06-04 10:12:00,71.0,59.0,30.01,ENE,72,3.0,-999.0,67,-99.99,,,-99.99,,2013-06-04 15:12:00,
2013-06-04 10:22:00,72.0,60.0,30.01,East,83,5.0,-999.0,65,-99.99,,,-99.99,,2013-06-04 15:22:00,
2013-06-04 10:33:00,72.0,59.0,30.00,East,101,5.0,-999.0,64,-99.99,,,-99.99,,2013-06-04 15:33:00,
2013-06-04 10:42:00,72.0,59.0,30.00,East,101,5.0,-999.0,64,-99.99,,,-99.99,,2013-06-04 15:42:00,
2013-06-04 10:53:00,74.0,61.0,30.00,East,90,4.0,-999.0,63,-99.99,,,-99.99,,2013-06-04 15:53:00,
2013-06-04 11:03:00,74.0,60.0,30.00,East,96,5.0,-999.0,62,-99.99,,,-99.99,,2013-06-04 16:03:00,
2013-06-04 11:12:00,74.0,60.0,30.00,East,96,5.0,-999.0,62,-99.99,,,-99.99,,2013-06-04 16:12:00,
2013-06-04 11:22:00,75.0,59.0,30.00,ESE,117,5.0,-999.0,58,-99.99,,,-99.99,,2013-06-04 16:22:00,
2013-06-04 11:33:00,76.0,60.0,30.01,ESE,106,5.0,-999.0,58,-99.99,,,-99.99,,2013-06-04 16:33:00,
2013-06-04 11:42:00,76.0,60.0,30.01,ESE,106,5.0,-999.0,58,-99.99,,,-99.99,,2013-06-04 16:42:00,
2013-06-04 11:53:00,76.0,61.0,30.00,East,82,4.0,-999.0,60,-99.99,,,-99.99,,2013-06-04 16:53:00,
2013-06-04 12:02:00,76.0,60.0,30.00,East,81,4.0,-999.0,57,-99.99,,,-99.99,,2013-06-04 17:02:00,
2013-06-04 12:12:00,76.0,60.0,30.00,East,81,4.0,-999.0,57,-99.99,,,-99.99,,2013-06-04 17:12:00,
2013-06-04 12:23:00,77.0,60.0,30.00,East,85,3.0,-999.0,56,-99.99,,,-99.99,,2013-06-04 17:23:00,
2013-06-04 12:32:00,77.0,60.0,30.00,ENE,72,3.0,-999.0,55,-99.99,,,-99.99,,2013-06-04 17:32:00,
2013-06-04 12:42:00,77.0,60.0,30.00,ENE,72,3.0,-999.0,55,-99.99,,,-99.99,,2013-06-04 17:42:00,
2013-06-04 12:52:00,78.0,59.0,30.01,SE,128,1.0,-999.0,52,-99.99,,,-99.99,,2013-06-04 17:52:00,
2013-06-04 13:02:00,78.0,60.0,30.01,East,80,2.0,-999.0,54,-99.99,,,-99.99,,2013-06-04 18:02:00,
2013-06-04 13:12:00,78.0,60.0,30.01,East,80,2.0,-999.0,54,-99.99,,,-99.99,,2013-06-04 18:12:00,
2013-06-04 13:22:00,78.0,59.0,30.00,SSE,150,1.0,-999.0,52,-99.99,,,-99.99,,2013-06-04 18:22:00,
2013-06-04 13:32:00,80.0,60.0,30.00,SSW,199,0.0,-999.0,50,-99.99,,,-99.99,,2013-06-04 18:32:00,
2013-06-04 13:42:00,80.0,60.0,30.00,SSW,199,0.0,-999.0,50,-99.99,,,-99.99,,2013-06-04 18:42:00,
2013-06-04 13:53:00,80.0,60.0,30.00,ESE,103,0.0,-999.0,50,-99.99,,,-99.99,,2013-06-04 18:53:00,
2013-06-04 14:02:00,79.0,60.0,29.99,NE,49,1.0,-999.0,52,-99.99,,,-99.99,,2013-06-04 19:02:00,
2013-06-04 14:12:00,79.0,60.0,29.99,NE,49,1.0,-999.0,52,-99.99,,,-99.99,,2013-06-04 19:12:00,
2013-06-04 14:22:00,79.0,59.0,29.98,East,80,0.0,-999.0,50,-99.99,,,-99.99,,2013-06-04 19:22:00,
2013-06-04 14:32:00,79.0,59.0,29.97,East,80,1.0,-999.0,51,-99.99,,,-99.99,,2013-06-04 19:32:00,
2013-06-04 14:42:00,79.0,59.0,29.97,East,80,1.0,-999.0,51,-99.99,,,-99.99,,2013-06-04 19:42:00,
2013-06-04 14:52:00,80.0,59.0,29.97,ENE,69,3.0,-999.0,49,-99.99,,,-99.99,,2013-06-04 19:52:00,
2013-06-04 15:02:00,80.0,60.0,29.96,ENE,61,0.0,-999.0,50,-99.99,,,-99.99,,2013-06-04 20:02:00,
2013-06-04 15:12:00,80.0,60.0,29.96,ENE,61,0.0,-999.0,50,-99.99,,,-99.99,,2013-06-04 20:12:00,
2013-06-04 15:22:00,80.0,59.0,29.96,NE,46,2.0,-999.0,48,-99.99,,,-99.99,,2013-06-04 20:22:00,
2013-06-04 15:32:00,80.0,58.0,29.95,NNE,30,1.0,-999.0,47,-99.99,,,-99.99,,2013-06-04 20:32:00,
2013-06-04 15:42:00,80.0,58.0,29.95,NNE,30,1.0,-999.0,47,-99.99,,,-99.99,,2013-06-04 20:42:00,
2013-06-04 15:53:00,81.0,59.0,29.95,SE,129,1.0,-999.0,47,-99.99,,,-99.99,,2013-06-04 20:53:00,
2013-06-04 16:02:00,81.0,59.0,29.95,ENE,67,1.0,-999.0,48,-99.99,,,-99.99,,2013-06-04 21:02:00,
2013-06-04 16:12:00,81.0,59.0,29.95,ENE,67,1.0,-999.0,48,-99.99,,,-99.99,,2013-06-04 21:12:00,
2013-06-04 16:22:00,81.0,59.0,29.94,NE,44,0.0,-999.0,47,-99.99,,,-99.99,,2013-06-04 21:22:00,
2013-06-04 16:33:00,81.0,59.0,29.94,ENE,65,1.0,-999.0,47,-99.99,,,-99.99,,2013-06-04 21:33:00,
2013-06-04 16:42:00,81.0,59.0,29.94,ENE,65,1.0,-999.0,47,-99.99,,,-99.99,,2013-06-04 21:42:00,
2013-06-04 16:53:00,81.0,59.0,29.94,East,98,0.0,-999.0,47,-99.99,,,-99.99,,2013-06-04 21:53:00,
2013-06-04 17:02:00,80.0,59.0,29.94,East,82,2.0,-999.0,49,-99.99,,,-99.99,,2013-06-04 22:02:00,
2013-06-04 17:12:00,80.0,59.0,29.94,East,82,2.0,-999.0,49,-99.99,,,-99.99,,2013-06-04 22:12:00,
2013-06-04 17:22:00,81.0,59.0,29.94,ENE,69,1.0,-999.0,48,-99.99,,,-99.99,,2013-06-04 22:22:00,
2013-06-04 17:32:00,81.0,59.0,29.94,NE,45,1.0,-999.0,48,-99.99,,,-99.99,,2013-06-04 22:32:00,
2013-06-04 17:42:00,81.0,59.0,29.94,NE,45,1.0,-999.0,48,-99.99,,,-99.99,,2013-06-04 22:42:00,
2013-06-04 17:52:00,81.0,60.0,29.94,ENE,64,1.0,-999.0,49,-99.99,,,-99.99,,2013-06-04 22:52:00,
2013-06-04 18:02:00,81.0,60.0,29.94,East,90,1.0,-999.0,49,-99.99,,,-99.99,,2013-06-04 23:02:00,
2013-06-04 18:12:00,81.0,60.0,29.94,East,90,1.0,-999.0,49,-99.99,,,-99.99,,2013-06-04 23:12:00,
2013-06-04 18:22:00,80.0,60.0,29.93,NE,35,3.0,-999.0,50,-99.99,,,-99.99,,2013-06-04 23:22:00,
2013-06-04 18:32:00,80.0,60.0,29.93,NE,56,1.0,-999.0,50,-99.99,,,-99.99,,2013-06-04 23:32:00,
2013-06-04 18:42:00,80.0,60.0,29.93,NE,56,1.0,-999.0,50,-99.99,,,-99.99,,2013-06-04 23:42:00,
2013-06-04 18:52:00,80.0,60.0,29.92,NE,39,1.0,-999.0,51,-99.99,,,-99.99,,2013-06-04 23:52:00,
2013-06-04 19:02:00,80.0,60.0,29.93,NE,38,0.0,-999.0,51,-99.99,,,-99.99,,2013-06-05 00:02:00,
2013-06-04 19:12:00,80.0,60.0,29.93,NE,38,0.0,-999.0,51,-99.99,,,-99.99,,2013-06-05 00:12:00,
2013-06-04 19:22:00,80.0,60.0,29.93,ENE,65,1.0,-999.0,51,-99.99,,,-99.99,,2013-06-05 00:22:00,
2013-06-04 19:32:00,79.0,59.0,29.93,NE,39,0.0,-999.0,51,-99.99,,,-99.99,,2013-06-05 00:32:00,
2013-06-04 19:42:00,79.0,59.0,29.93,NE,39,0.0,-999.0,51,-99.99,,,-99.99,,2013-06-05 00:42:00,
2013-06-04 19:52:00,79.0,60.0,29.93,NNE,33,0.0,-999.0,53,-99.99,,,-99.99,,2013-06-05 00:52:00,
2013-06-04 20:02:00,78.0,60.0,29.93,NE,48,1.0,-999.0,54,-99.99,,,-99.99,,2013-06-05 01:02:00,
2013-06-04 20:12:00,78.0,60.0,29.93,NE,48,1.0,-999.0,54,-99.99,,,-99.99,,2013-06-05 01:12:00,